#timestamp,LO_Frequency,Hit,StdDev 
1606269615.5,286047012.7,N
1606269635.4,286047016.4,N
1606269655.2,286047019.3,N
1606269675.0,286047015.6,N
1606269675.9,286047015.6,N
1606269695.8,286047017.0,N
1606269715.6,286047016.4,N
1606269735.5,286047019.2,N
1606269755.3,286047021.4,N
1606269775.1,286047026.5,N
1606269795.9,286047031.1,N
1606269815.7,286047034.7,N
1606269835.6,286047037.6,N
1606269855.4,286047042.2,N
1606269875.2,286047043.6,N
1606269895.1,286047043.6,N
1606269896.0,286047043.6,N
1606269915.8,286047040.0,N
1606269935.6,286047037.4,N
1606269955.5,286047036.5,N
1606269975.3,286047039.1,N
1606269995.2,286047043.4,N
1606270015.9,286047048.3,N
1606270035.7,286047053.9,Y
1606270055.6,286047035.6,P
1606270075.4,286047035.2,P
1606270095.3,286047039.2,P
1606270115.1,286047030.1,Y
1606270116.0,286047030.1,P
1606270135.8,286046995.7,N
1606270155.7,286046997.9,N
1606270175.5,286047004.8,N
1606270195.3,286047008.2,N
1606270215.2,286047006.3,N
1606270235.0,286047005.0,N
1606270235.9,286047005.0,N
1606270255.8,286046996.7,N
1606270275.6,286046992.2,N
1606270295.4,286046994.4,N
1606270315.3,286046991.3,N
1606270335.1,286046991.3,N
1606270355.9,286046994.7,N
1606270375.7,286046991.2,N
1606270395.5,286046985.9,N
1606270415.4,286046980.5,N
1606270435.2,286046980.7,N
1606270455.0,286046984.9,N
1606270455.9,286046984.9,N
1606270475.8,286046986.3,N
1606270495.6,286046989.4,N
1606270515.5,286046991.6,N
1606270535.3,286046991.1,N
1606270555.1,286046991.9,N
1606270575.9,286046989.7,N
1606270595.7,286046990.1,N
1606270615.5,286046994.0,N
1606270635.4,286046999.3,N
1606270655.2,286047003.9,N
1606270675.1,286047004.9,N
1606270676.0,286047004.9,N
1606270695.8,286047012.0,N
1606270715.6,286047013.9,N
1606270735.5,286047013.1,N
1606270755.3,286047014.5,N
1606270775.1,286047018.1,N
1606270795.9,286047022.9,N
1606270815.7,286047024.1,N
1606270835.6,286047016.6,N
1606270855.4,286047017.0,N
1606270875.2,286047017.0,N
1606270895.1,286047015.5,N
1606270896.0,286047015.5,N
1606270915.8,286047005.3,N
1606270935.7,286047005.5,N
1606270955.5,286047002.2,N
1606270975.3,286047005.3,N
1606270995.2,286047000.1,N
1606271015.9,286047000.1,N
1606271035.7,286047004.6,N
1606271055.6,286047005.8,N
1606271075.4,286047007.6,N
1606271095.3,286047012.2,N
1606271115.1,286047016.2,N
1606271135.8,286047017.0,N
1606271155.7,286047015.7,N
1606271175.5,286047017.7,N
1606271195.4,286047020.6,N
1606271215.2,286047023.6,Y
1606271235.0,286047015.2,P
1606271235.9,286047015.2,P
1606271255.8,286047015.4,P
1606271275.6,286047023.4,Y
1606271295.5,286047010.6,P
1606271315.3,286047008.8,P
1606271335.1,286047003.5,N
1606271355.9,286046998.2,N
1606271375.7,286046998.8,N
1606271395.6,286047000.1,N
1606271415.4,286047002.2,N
1606271435.2,286047000.3,N
1606271455.1,286047002.2,N
1606271456.0,286047002.2,N
1606271475.8,286046999.3,N
1606271495.6,286047004.7,N
1606271515.5,286047006.4,N
1606271535.3,286047007.4,N
1606271555.2,286047005.0,N
1606271575.0,286047007.2,N
1606271575.9,286047007.2,N
1606271595.8,286047007.6,N
1606271615.6,286047005.2,N
1606271635.4,286047006.0,N
1606271655.3,286047002.0,N
1606271675.1,286047004.5,N
1606271695.9,286047006.4,N
1606271715.7,286047010.9,N
1606271735.5,286047021.3,Y
1606271755.4,286047013.2,P
1606271775.2,286047014.6,P
1606271795.1,286047018.1,P
1606271796.0,286047018.1,Y
1606271815.8,286047003.3,P
1606271835.6,286047006.9,N
1606271855.5,286047009.5,N
1606271875.3,286047003.6,N
1606271895.2,286046991.4,N
1606271915.9,286046989.5,N
1606271935.7,286046992.5,N
1606271955.6,286046994.9,N
1606271975.4,286046996.1,N
1606271995.2,286046993.8,N
1606272015.1,286046992.1,N
1606272016.0,286046992.1,N
1606272035.8,286046993.0,N
1606272055.7,286046994.4,N
1606272075.5,286046991.6,N
1606272095.3,286046992.9,N
1606272115.2,286046994.7,N
1606272135.0,286046996.2,N
1606272135.9,286046996.2,N
1606272155.8,286046999.1,N
1606272175.6,286046997.0,N
1606272195.4,286046997.1,N
1606272215.3,286047002.1,N
1606272235.1,286047005.9,N
1606272255.9,286047008.6,N
1606272275.7,286047013.8,N
1606272295.5,286047016.4,N
1606272315.4,286047016.6,N
1606272335.2,286047014.7,N
1606272355.0,286047009.6,N
1606272355.9,286047009.6,N
1606272375.8,286046998.8,N
1606272395.6,286046998.5,N
1606272415.5,286046999.6,N
1606272435.3,286047005.8,N
1606272455.1,286047007.9,N
1606272475.9,286047000.3,N
1606272495.7,286046994.9,N
1606272515.5,286046997.6,N
1606272535.4,286047002.4,N
1606272555.2,286047002.3,N
1606272575.1,286047003.0,N
1606272576.0,286047003.0,N
1606272595.8,286047004.7,N
1606272615.6,286047009.6,N
1606272635.5,286047008.1,N
1606272655.3,286047006.4,N
1606272675.1,286047007.5,N
1606272695.9,286047004.4,N
1606272715.7,286046999.2,N
1606272735.6,286047007.1,N
1606272755.4,286047003.8,N
1606272775.2,286047002.7,N
1606272795.1,286047010.1,N
1606272796.0,286047010.1,N
1606272815.8,286047014.7,N
1606272835.7,286047014.9,N
1606272855.5,286047016.0,N
1606272875.3,286047010.0,N
1606272895.2,286047013.0,N
1606272915.0,286047021.9,Y
1606272915.9,286047021.9,P
1606272935.7,286047016.5,N
1606272955.6,286047023.5,P
1606272975.4,286047016.6,N
1606272995.3,286047016.7,N
1606273015.1,286047016.9,N
1606273035.8,286047013.4,N
1606273055.7,286047014.9,N
1606273075.5,286046957.4,Y
1606273095.4,286047000.8,P
1606273115.2,286047000.9,N
1606273135.0,286046996.9,N
1606273135.9,286046996.9,N
1606273155.8,286046995.8,N
1606273175.6,286046998.5,N
1606273195.4,286046998.4,N
